Вернуться в каталог

CZ-6A R/B

АктивенPO
NORAD 57831·ROCKET BODY·🇨🇳 China

Запущен Sep 10, 2023 с Taiyuan Satellite Launch Center

Loading…

Ближайшие Пролёты (ближайшие 24 часа)

TLE

СвежийSource: Space-Track

Эпоха: Sep 14, 2026, 06:44 UTC

1 57831U 23139B   26257.28105697  .00000293  00000-0  11084-3 0  9993
2 57831  85.9920 207.6399 0011900 340.0036  20.0688 14.27783912156901

Отслеживайте CZ-6A R/B в реальном времени с AllMySat

Download on the App Store